| time (UTC) | temp F | wind direction | speed knots | gust knots | rain 1hr in | rain 24hr in | rain mn in | humidity % | barometer mb |
| 20260504203035 | 82 | 0 | 1.7 | 5.2 | 0.00 | 0.00 | 0.00 | 36 | 1007.5 |
| 20260504201533 | 81 | 313 | 2.6 | 7.0 | 0.00 | 0.00 | 0.00 | 36 | 1007.6 |
| 20260504200033 | 81 | 360 | 1.7 | 8.7 | 0.00 | 0.00 | 0.00 | 38 | 1007.8 |
| 20260504194546 | 80 | 334 | 4.3 | 8.7 | 0.00 | 0.00 | 0.00 | 37 | 1007.9 |
| 20260504193035 | 79 | 350 | 4.3 | 11.3 | 0.00 | 0.00 | 0.00 | 36 | 1008.0 |
| 20260504191541 | 79 | 311 | 4.3 | 12.2 | 0.00 | 0.00 | 0.00 | 37 | 1008.1 |
| 20260504190043 | 78 | 323 | 4.3 | 9.6 | 0.00 | 0.00 | 0.00 | 39 | 1008.2 |
| 20260504184538 | 78 | 317 | 4.3 | 8.7 | 0.00 | 0.00 | 0.00 | 39 | 1008.4 |
| 20260504183030 | 77 | 299 | 4.3 | 8.7 | 0.00 | 0.00 | 0.00 | 41 | 1008.3 |
| 20260504181530 | 77 | 317 | 4.3 | 8.7 | 0.00 | 0.00 | 0.00 | 39 | 1008.4 |
| 20260504180040 | 77 | 320 | 3.5 | 8.7 | 0.00 | 0.00 | 0.00 | 41 | 1008.5 |
| 20260504174533 | 76 | 330 | 5.2 | 9.6 | 0.00 | 0.00 | 0.00 | 43 | 1008.4 |
| 20260504173036 | 75 | 338 | 4.3 | 9.6 | 0.00 | 0.00 | 0.00 | 43 | 1008.4 |
| 20260504171531 | 74 | 327 | 4.3 | 11.3 | 0.00 | 0.00 | 0.00 | 43 | 1008.5 |
| 20260504081532 | 63 | 0 | 0.0 | 0.0 | 0.00 | 0.00 | 0.00 | 54 | 1007.4 |
| 20260504044532 | 73 | 0 | 0.0 | 0.0 | 0.00 | 0.00 | 0.00 | 36 | 1007.7 |
| 20260504043031 | 73 | 0 | 0.0 | 0.0 | 0.00 | 0.00 | 0.00 | 37 | 1007.6 |
| 20260504041535 | 72 | 0 | 0.0 | 0.0 | 0.00 | 0.00 | 0.00 | 39 | 1007.6 |
| 20260504040033 | 72 | 0 | 0.0 | 0.0 | 0.00 | 0.00 | 0.00 | 36 | 1007.5 |
| 20260504034542 | 73 | 0 | 0.0 | 0.0 | 0.00 | 0.00 | 0.00 | 37 | 1007.5 |
| 20260504033033 | 74 | 0 | 0.0 | 0.0 | 0.00 | 0.00 | 0.00 | 38 | 1007.4 |
| 20260504031537 | 77 | 0 | 0.0 | 0.0 | 0.00 | 0.00 | 0.00 | 36 | 1007.5 |
| 20260504030039 | 79 | 0 | 0.0 | 0.0 | 0.00 | 0.00 | 0.00 | 37 | 1007.5 |
| 20260504024535 | 82 | 0 | 0.0 | 0.0 | 0.00 | 0.00 | 0.00 | 37 | 1007.5 |
| 20260504023030 | 82 | 0 | 0.0 | 0.0 | 0.00 | 0.00 | 0.00 | 33 | 1007.6 |
| 20260504021530 | 82 | 0 | 0.0 | 1.7 | 0.00 | 0.00 | 0.00 | 33 | 1007.8 |
| 20260504020030 | 83 | 349 | 0.9 | 3.5 | 0.00 | 0.00 | 0.00 | 31 | 1007.8 |
| 20260504014531 | 84 | 349 | 0.9 | 3.5 | 0.00 | 0.00 | 0.00 | 29 | 1008.0 |
| 20260504013032 | 84 | 349 | 1.7 | 5.2 | 0.00 | 0.00 | 0.00 | 27 | 1008.0 |
| 20260504011532 | 84 | 349 | 1.7 | 7.0 | 0.00 | 0.00 | 0.00 | 27 | 1008.2 |
| 20260504010029 | 85 | 344 | 1.7 | 5.2 | 0.00 | 0.00 | 0.00 | 27 | 1008.4 |
| 20260504004530 | 85 | 344 | 1.7 | 4.3 | 0.00 | 0.00 | 0.00 | 26 | 1008.6 |
| 20260504003036 | 85 | 344 | 2.6 | 7.0 | 0.00 | 0.00 | 0.00 | 26 | 1008.8 |
| 20260504001530 | 85 | 344 | 2.6 | 5.2 | 0.00 | 0.00 | 0.00 | 26 | 1009.0 |
| 20260504000030 | 85 | 349 | 2.6 | 7.0 | 0.00 | 0.00 | 0.00 | 25 | 1009.0 |
| 20260503234533 | 85 | 342 | 2.6 | 7.0 | 0.00 | 0.00 | 0.00 | 26 | 1009.3 |
| 20260503233033 | 85 | 342 | 4.3 | 8.7 | 0.00 | 0.00 | 0.00 | 25 | 1009.6 |
| 20260503231544 | 85 | 349 | 2.6 | 7.0 | 0.00 | 0.00 | 0.00 | 26 | 1009.8 |
| 20260503230033 | 85 | 347 | 3.5 | 9.6 | 0.00 | 0.00 | 0.00 | 26 | 1010.0 |
| 20260503224532 | 85 | 319 | 5.2 | 9.6 | 0.00 | 0.00 | 0.00 | 27 | 1010.1 |
| 20260503223030 | 85 | 346 | 3.5 | 7.8 | 0.00 | 0.00 | 0.00 | 28 | 1010.3 |
| 20260503221534 | 85 | 336 | 3.5 | 7.8 | 0.00 | 0.00 | 0.00 | 29 | 1010.4 |
| 20260503220037 | 84 | 334 | 2.6 | 8.7 | 0.00 | 0.00 | 0.00 | 29 | 1010.7 |
| 20260503214540 | 84 | 336 | 1.7 | 7.8 | 0.00 | 0.00 | 0.00 | 28 | 1010.9 |
| 20260503213049 | 84 | 336 | 4.3 | 7.0 | 0.00 | 0.00 | 0.00 | 30 | 1011.0 |
| 20260503211533 | 84 | 334 | 4.3 | 8.7 | 0.00 | 0.00 | 0.00 | 32 | 1011.2 |
| 20260503210030 | 83 | 23 | 2.6 | 9.6 | 0.00 | 0.00 | 0.00 | 30 | 1011.4 |
| 20260503204549 | 83 | 352 | 3.5 | 7.8 | 0.00 | 0.00 | 0.00 | 32 | 1011.6 |